Precipitable_Water
0.64 0.64 0.66 0.69 0.72 0.76 0.79 0.77 0.72 0.71 0.69 0.70 0.68 0.68 0.67 0.66 0.65 0.70 0.73 0.76 0.82 0.84 0.86 0.91 0.90 0.86 0.72 0.53 0.51 0.70 0.64 0.62 0.60 0.52 0.45 0.42 0.37 0.32 0.27 0.32 0.33 0.30 0.30 0.27 0.32 0.31 0.31
0.60 0.59 0.58 0.57 0.58 0.59 0.64 0.69 0.74 0.72 0.70 0.68 0.68 0.66 0.65 0.65 0.64 0.62 0.66 0.70 0.73 0.77 0.81 0.85 0.89 0.88 0.64 0.45 0.61 0.62 0.64 0.66 0.55 0.54 0.46 0.44 0.39 0.34 0.29 0.31 0.34 0.32 0.35 0.31 0.32 0.33 0.33
0.61 0.58 0.57 0.55 0.54 0.54 0.54 0.56 0.60 0.67 0.64 0.63 0.66 0.66 0.66 0.66 0.66 0.60 0.61 0.64 0.66 0.69 0.80 0.82 0.85 0.81 0.58 0.49 0.56 0.66 0.64 0.61 0.61 0.59 0.46 0.46 0.43 0.33 0.39 0.35 0.39 0.33 0.27 0.29 0.34 0.38 0.39
0.55 0.59 0.58 0.56 0.55 0.52 0.51 0.52 0.53 0.57 0.60 0.59 0.56 0.58 0.63 0.63 0.62 0.60 0.55 0.58 0.63 0.65 0.71 0.78 0.84 0.73 0.48 0.59 0.60 0.62 0.61 0.61 0.62 0.63 0.53 0.50 0.44 0.39 0.38 0.41 0.36 0.30 0.29 0.25 0.35 0.40 0.45
0.51 0.50 0.49 0.51 0.54 0.53 0.51 0.48 0.48 0.50 0.55 0.55 0.58 0.54 0.53 0.55 0.59 0.59 0.55 0.50 0.54 0.61 0.68 0.76 0.68 0.65 0.44 0.59 0.58 0.59 0.58 0.54 0.55 0.59 0.54 0.50 0.46 0.37 0.37 0.32 0.28 0.29 0.24 0.25 0.31 0.45 0.46
0.49 0.49 0.49 0.48 0.47 0.50 0.53 0.51 0.49 0.47 0.47 0.50 0.52 0.57 0.54 0.52 0.52 0.53 0.54 0.48 0.49 0.64 0.74 0.77 0.70 0.53 0.52 0.41 0.54 0.59 0.53 0.52 0.51 0.56 0.48 0.42 0.39 0.32 0.32 0.32 0.25 0.30 0.31 0.31 0.27 0.43 0.44
0.50 0.51 0.50 0.50 0.48 0.48 0.46 0.52 0.53 0.51 0.48 0.48 0.51 0.53 0.57 0.54 0.53 0.51 0.44 0.43 0.43 0.61 0.77 0.57 0.51 0.45 0.42 0.57 0.55 0.53 0.56 0.50 0.50 0.54 0.40 0.39 0.33 0.28 0.32 0.40 0.43 0.34 0.29 0.32 0.38 0.44 0.42
0.49 0.51 0.52 0.52 0.52 0.51 0.48 0.44 0.47 0.53 0.50 0.47 0.47 0.50 0.55 0.55 0.53 0.53 0.45 0.31 0.35 0.64 0.40 0.53 0.51 0.49 0.52 0.53 0.48 0.52 0.59 0.43 0.44 0.44 0.42 0.39 0.33 0.34 0.40 0.41 0.36 0.31 0.26 0.28 0.35 0.42 0.35
0.52 0.55 0.58 0.59 0.59 0.60 0.59 0.57 0.51 0.43 0.49 0.48 0.46 0.47 0.51 0.59 0.56 0.47 0.37 0.31 0.46 0.68 0.36 0.34 0.35 0.32 0.37 0.44 0.40 0.46 0.54 0.46 0.43 0.42 0.41 0.36 0.40 0.47 0.38 0.38 0.31 0.28 0.23 0.34 0.36 0.41 0.37
0.53 0.57 0.61 0.65 0.67 0.68 0.69 0.69 0.68 0.61 0.50 0.48 0.48 0.46 0.51 0.61 0.46 0.42 0.32 0.37 0.42 0.63 0.23 0.18 0.27 0.37 0.39 0.40 0.30 0.45 0.57 0.46 0.42 0.42 0.41 0.40 0.44 0.45 0.39 0.34 0.34 0.29 0.33 0.35 0.36 0.34 0.28
0.57 0.60 0.65 0.69 0.71 0.72 0.72 0.72 0.71 0.69 0.67 0.61 0.52 0.47 0.51 0.61 0.45 0.43 0.55 0.70 0.72 0.60 0.10 0.17 0.24 0.50 0.47 0.36 0.32 0.36 0.54 0.49 0.37 0.41 0.40 0.37 0.40 0.40 0.36 0.32 0.37 0.36 0.42 0.42 0.35 0.31 0.32
0.62 0.65 0.68 0.71 0.74 0.75 0.76 0.76 0.75 0.72 0.69 0.68 0.64 0.51 0.51 0.60 0.54 0.46 0.66 0.79 0.67 0.26 0.10 0.17 0.34 0.33 0.35 0.36 0.32 0.35 0.39 0.52 0.45 0.41 0.43 0.40 0.48 0.42 0.38 0.37 0.40 0.41 0.36 0.37 0.37 0.33 0.26
0.69 0.71 0.72 0.73 0.75 0.78 0.80 0.80 0.79 0.77 0.74 0.71 0.70 0.61 0.50 0.60 0.42 0.56 0.66 0.62 0.27 0.16 0.13 0.12 0.27 0.33 0.31 0.35 0.33 0.33 0.35 0.39 0.37 0.34 0.34 0.40 0.41 0.43 0.39 0.34 0.37 0.37 0.32 0.25 0.25 0.26 0.25
0.72 0.74 0.75 0.76 0.78 0.81 0.82 0.83 0.82 0.81 0.78 0.75 0.73 0.71 0.55 0.57 0.63 0.68 0.61 0.44 0.19 0.13 0.14 0.24 0.22 0.35 0.29 0.36 0.38 0.36 0.34 0.33 0.41 0.38 0.34 0.36 0.30 0.37 0.40 0.35 0.33 0.33 0.31 0.25 0.25 0.32 0.36
0.75 0.77 0.78 0.79 0.80 0.81 0.82 0.84 0.85 0.84 0.82 0.77 0.75 0.71 0.60 0.53 0.63 0.65 0.49 0.23 0.19 0.15 0.18 0.18 0.30 0.31 0.36 0.36 0.38 0.39 0.35 0.35 0.41 0.42 0.33 0.35 0.31 0.39 0.41 0.38 0.36 0.40 0.35 0.34 0.41 0.46 0.42
0.78 0.79 0.80 0.81 0.80 0.80 0.82 0.84 0.86 0.86 0.84 0.79 0.68 0.64 0.58 0.60 0.66 0.60 0.37 0.25 0.16 0.24 0.23 0.24 0.17 0.30 0.32 0.35 0.34 0.35 0.35 0.42 0.39 0.46 0.46 0.37 0.33 0.37 0.39 0.41 0.34 0.36 0.45 0.31 0.37 0.33 0.27
0.79 0.80 0.80 0.80 0.80 0.80 0.81 0.82 0.85 0.87 0.85 0.81 0.66 0.49 0.61 0.71 0.67 0.48 0.26 0.19 0.19 0.24 0.26 0.25 0.22 0.22 0.21 0.33 0.36 0.33 0.34 0.39 0.48 0.50 0.51 0.41 0.39 0.34 0.39 0.34 0.31 0.30 0.36 0.41 0.37 0.33 0.27
0.78 0.77 0.76 0.77 0.77 0.78 0.81 0.81 0.83 0.86 0.86 0.78 0.59 0.38 0.63 0.71 0.41 0.40 0.22 0.27 0.28 0.20 0.23 0.29 0.29 0.22 0.26 0.29 0.36 0.33 0.32 0.37 0.44 0.52 0.40 0.40 0.39 0.35 0.36 0.39 0.39 0.36 0.30 0.40 0.31 0.33 0.33
0.76 0.75 0.76 0.77 0.77 0.78 0.79 0.82 0.84 0.86 0.85 0.71 0.49 0.48 0.65 0.63 0.30 0.28 0.32 0.26 0.32 0.26 0.27 0.29 0.29 0.30 0.39 0.37 0.30 0.42 0.36 0.44 0.46 0.47 0.45 0.39 0.36 0.33 0.39 0.41 0.40 0.28 0.38 0.37 0.36 0.35 0.31
0.73 0.73 0.73 0.73 0.73 0.73 0.78 0.81 0.84 0.87 0.85 0.74 0.52 0.37 0.49 0.53 0.42 0.32 0.28 0.27 0.25 0.29 0.29 0.30 0.30 0.37 0.38 0.40 0.44 0.47 0.39 0.42 0.49 0.52 0.49 0.47 0.38 0.36 0.30 0.37 0.35 0.31 0.32 0.43 0.41 0.31 0.33
0.64 0.63 0.64 0.64 0.69 0.73 0.74 0.77 0.81 0.85 0.85 0.72 0.52 0.40 0.43 0.31 0.31 0.30 0.35 0.31 0.27 0.23 0.28 0.34 0.33 0.33 0.41 0.33 0.42 0.40 0.48 0.42 0.48 0.50 0.47 0.47 0.37 0.38 0.36 0.39 0.37 0.35 0.31 0.29 0.29 0.35 0.33
0.54 0.54 0.54 0.55 0.60 0.63 0.67 0.70 0.78 0.82 0.84 0.65 0.45 0.41 0.44 0.37 0.40 0.36 0.34 0.29 0.29 0.25 0.25 0.20 0.31 0.32 0.43 0.40 0.40 0.31 0.38 0.39 0.39 0.46 0.43 0.45 0.41 0.39 0.36 0.36 0.39 0.38 0.35 0.33 0.31 0.30 0.33
0.59 0.61 0.62 0.63 0.60 0.58 0.62 0.66 0.70 0.76 0.80 0.60 0.59 0.53 0.47 0.38 0.40 0.36 0.30 0.30 0.28 0.32 0.26 0.24 0.24 0.32 0.38 0.50 0.59 0.65 0.58 0.54 0.50 0.50 0.41 0.39 0.39 0.36 0.31 0.35 0.35 0.30 0.34 0.32 0.33 0.34 0.31
0.63 0.63 0.62 0.62 0.62 0.63 0.60 0.64 0.68 0.71 0.74 0.67 0.59 0.50 0.44 0.34 0.39 0.32 0.33 0.35 0.33 0.33 0.27 0.26 0.27 0.33 0.40 0.60 0.68 0.68 0.56 0.52 0.51 0.52 0.54 0.39 0.42 0.38 0.35 0.34 0.24 0.34 0.37 0.37 0.33 0.33 0.34
0.63 0.62 0.61 0.62 0.61 0.62 0.62 0.62 0.65 0.68 0.72 0.68 0.64 0.54 0.45 0.35 0.35 0.38 0.38 0.36 0.36 0.39 0.31 0.28 0.27 0.33 0.47 0.43 0.44 0.43 0.42 0.41 0.44 0.50 0.52 0.51 0.48 0.39 0.34 0.34 0.34 0.35 0.38 0.36 0.33 0.31 0.36
0.62 0.62 0.63 0.64 0.63 0.64 0.65 0.63 0.65 0.67 0.71 0.70 0.66 0.63 0.52 0.40 0.35 0.38 0.39 0.37 0.35 0.35 0.30 0.28 0.34 0.44 0.53 0.50 0.47 0.34 0.26 0.32 0.28 0.34 0.48 0.52 0.56 0.46 0.36 0.30 0.29 0.37 0.41 0.44 0.41 0.30 0.37
0.64 0.65 0.66 0.68 0.69 0.67 0.67 0.65 0.64 0.67 0.71 0.66 0.66 0.67 0.59 0.44 0.47 0.47 0.39 0.35 0.40 0.38 0.28 0.30 0.36 0.47 0.46 0.32 0.33 0.34 0.30 0.39 0.30 0.34 0.37 0.45 0.47 0.40 0.39 0.35 0.38 0.43 0.42 0.44 0.30 0.31 0.39
0.66 0.68 0.68 0.66 0.66 0.65 0.67 0.66 0.67 0.67 0.68 0.66 0.65 0.70 0.61 0.50 0.47 0.55 0.53 0.43 0.41 0.38 0.26 0.28 0.36 0.45 0.47 0.32 0.31 0.36 0.28 0.28 0.28 0.32 0.39 0.44 0.41 0.39 0.41 0.37 0.32 0.50 0.43 0.35 0.37 0.42 0.46
0.67 0.66 0.69 0.68 0.64 0.65 0.70 0.69 0.69 0.68 0.68 0.67 0.60 0.72 0.73 0.54 0.49 0.63 0.62 0.64 0.55 0.42 0.36 0.35 0.38 0.51 0.47 0.34 0.34 0.35 0.27 0.25 0.23 0.21 0.36 0.36 0.47 0.43 0.43 0.43 0.53 0.53 0.51 0.53 0.51 0.51 0.52
Wind_Speed
34 35 36 35 35 34 34 35 34 34 33 33 33 32 32 32 32 32 32 31 31 31 30 29 28 27 25 22 23 20 18 17 16 15 16 15 15 15 15 16 16 16 16 14 16 15 15
35 35 35 35 36 36 36 35 35 35 34 34 34 33 33 32 32 32 31 32 32 31 31 30 29 27 25 26 22 19 19 18 18 17 17 16 15 15 17 18 18 17 16 15 16 15 14
36 37 37 36 36 36 37 37 36 36 36 35 35 35 34 34 33 32 32 31 31 31 31 30 29 28 28 27 22 21 19 19 18 18 17 16 16 16 15 16 16 17 17 16 16 16 14
38 38 39 39 38 38 38 38 39 39 38 37 36 35 35 35 34 33 32 32 31 30 29 29 28 28 28 24 24 24 24 21 19 18 18 17 15 15 16 17 18 18 16 16 13 9 14
40 40 41 40 40 41 40 40 39 39 40 38 38 37 36 35 34 34 33 33 32 31 30 28 26 25 27 22 24 25 23 21 19 18 17 16 14 15 15 16 15 14 14 16 14 12 13
41 42 42 42 43 42 42 42 42 41 40 41 39 39 38 37 35 34 34 33 32 31 30 28 28 25 26 23 21 20 21 21 20 18 17 17 14 15 15 14 14 14 12 18 14 10 12
44 44 44 44 45 45 45 44 44 43 42 41 41 40 40 38 37 35 33 30 27 27 29 28 25 26 24 21 21 20 20 21 21 20 19 18 16 17 16 16 19 17 14 13 5 9 8
46 46 46 46 47 47 47 47 46 46 45 43 42 42 41 40 38 36 33 30 27 27 31 34 36 36 33 29 23 23 22 21 23 23 21 19 20 18 17 17 12 14 12 13 7 5 7
49 49 49 48 48 48 47 47 47 47 46 45 44 42 42 40 39 37 36 35 31 28 31 35 36 36 33 33 31 25 25 25 25 25 23 23 20 17 19 14 12 12 12 9 15 10 14
51 50 50 49 48 47 46 46 47 46 46 46 44 43 42 40 38 38 37 33 33 29 28 32 28 27 34 31 33 31 27 25 24 27 26 25 22 16 17 13 13 12 10 11 12 10 9
52 51 50 48 48 48 47 46 45 45 45 45 44 42 42 41 36 34 28 28 29 24 22 20 23 20 22 31 19 28 29 28 29 24 24 24 23 22 17 17 15 14 6 12 11 13 14
52 51 50 49 47 47 46 46 45 43 43 42 42 41 41 40 39 37 34 29 27 25 26 22 21 21 22 29 31 20 31 30 27 28 25 26 22 23 21 17 15 12 12 12 13 12 12
52 50 49 49 47 46 45 43 42 41 40 39 39 38 38 39 37 34 34 30 29 32 27 27 25 22 24 25 31 28 30 32 31 29 28 25 28 22 20 19 18 13 12 10 9 10 9
50 48 47 46 45 43 42 40 38 36 35 34 34 33 34 36 35 33 33 32 35 38 40 17 27 24 27 25 27 31 29 32 34 30 25 24 24 26 20 20 17 15 14 11 8 8 6
47 46 46 45 43 42 41 41 39 38 36 34 33 33 32 30 30 33 32 40 40 41 35 38 22 25 24 25 22 28 33 31 34 35 31 26 27 24 22 20 20 16 15 16 7 11 9
46 46 45 44 44 44 44 43 41 39 37 35 33 32 33 32 30 28 32 42 48 46 36 28 37 25 23 25 25 26 29 29 32 34 31 24 22 26 24 21 21 19 13 14 11 6 9
46 47 47 47 47 46 45 44 43 41 39 37 34 30 31 32 32 29 29 46 50 45 43 33 32 31 34 24 25 27 25 26 30 29 35 31 22 22 24 24 21 17 16 16 16 13 7
49 50 51 50 50 49 47 45 45 43 41 39 36 33 31 34 33 32 38 30 44 46 45 40 33 36 30 29 24 29 29 26 25 31 34 35 20 21 25 23 22 21 19 18 14 12 11
49 49 49 48 48 48 48 47 46 46 45 41 36 34 33 37 34 36 36 39 36 45 41 39 38 31 31 28 27 27 28 23 21 27 35 34 29 21 23 24 23 24 20 19 19 17 16
49 49 49 50 49 49 50 49 49 49 50 45 37 33 34 40 41 40 37 38 36 44 46 41 37 31 33 27 27 19 27 22 21 19 31 31 30 27 24 23 21 21 22 21 20 16 15
51 51 52 52 52 52 51 52 52 54 54 50 43 40 40 40 44 44 39 30 38 37 45 42 39 36 32 30 27 27 20 24 24 22 22 25 32 29 27 24 24 23 22 23 22 19 18
53 53 53 53 54 55 56 55 57 56 57 54 45 41 43 36 42 42 41 41 35 37 41 52 42 35 33 29 28 30 28 23 22 25 25 26 27 32 26 27 24 23 24 24 22 22 20
50 49 48 48 48 50 51 57 59 61 62 52 51 50 40 43 39 40 44 42 40 34 36 46 48 39 31 28 21 15 21 21 21 21 25 26 27 28 30 28 25 27 25 21 20 21 19
42 42 43 44 45 47 48 49 55 60 64 54 53 49 40 38 39 42 43 43 40 38 34 40 47 40 38 27 23 21 22 21 23 20 20 22 26 27 23 22 33 24 24 24 23 22 21
40 40 41 42 44 44 49 50 51 59 61 57 51 49 42 37 39 39 39 40 40 35 35 36 45 44 32 30 25 22 21 22 23 23 23 22 22 24 24 26 25 29 22 22 22 23 22
35 37 37 38 39 40 45 49 51 54 58 54 52 49 41 36 35 37 34 39 36 36 32 34 41 36 33 27 22 25 25 25 25 23 24 27 26 26 22 26 26 23 23 18 20 22 20
35 40 42 41 41 42 45 48 52 53 55 50 53 48 41 32 28 32 35 34 36 34 30 31 39 32 38 37 25 21 26 24 23 20 22 24 25 28 25 22 23 22 25 23 25 17 17
32 35 37 38 39 42 44 47 49 51 53 51 46 48 40 30 30 23 31 28 32 33 31 31 35 34 35 33 33 23 25 28 24 25 25 23 23 24 23 23 26 16 20 27 21 19 19
16 3 26 33 38 38 42 46 48 48 50 54 41 43 38 31 26 23 28 24 25 32 27 29 38 32 33 31 32 30 22 25 27 25 25 23 24 24 23 23 22 21 21 18 18 18 19
Wind_Direction
271 270 270 270 270 271 271 269 270 269 270 271 271 272 273 274 275 275 274 275 276 276 278 280 284 287 288 278 275 285 278 275 274 270 266 267 269 272 277 282 290 284 290 280 281 286 277
271 272 272 271 270 269 270 270 269 268 269 270 270 271 272 273 274 275 275 275 275 275 276 277 279 283 277 273 275 274 277 270 267 263 263 261 265 270 278 289 291 290 294 288 283 281 281
273 272 271 271 271 271 270 269 269 269 269 269 270 270 271 271 272 274 275 275 275 275 275 274 275 275 270 265 270 272 275 270 264 258 257 258 264 268 279 282 289 285 284 281 275 272 270
272 272 271 271 271 270 270 271 269 268 269 268 268 269 270 270 271 272 273 274 274 273 273 272 272 270 266 266 268 267 264 264 259 255 252 260 262 266 270 283 289 289 279 276 289 254 266
273 272 272 271 271 270 270 270 270 269 267 267 267 267 268 269 270 270 272 272 272 271 270 269 268 262 269 264 262 261 256 253 251 251 249 252 259 258 267 270 283 277 268 270 268 264 261
273 272 272 272 271 271 270 269 269 269 268 266 266 265 265 266 268 269 271 271 270 269 265 262 259 264 261 261 266 258 248 246 245 242 243 245 250 252 256 264 269 283 278 271 271 250 264
274 273 273 272 271 270 269 269 267 267 267 267 265 265 264 264 265 266 269 269 265 262 254 253 253 254 265 262 259 255 244 238 238 236 238 234 239 244 246 250 269 287 288 282 274 279 274
275 275 274 273 272 271 270 268 268 266 265 265 264 262 263 262 262 262 261 258 261 266 266 255 256 257 254 260 259 248 237 231 230 231 229 234 237 244 248 262 279 283 266 264 267 253 273
276 275 274 273 272 271 269 268 267 265 264 264 263 262 260 259 259 258 255 253 257 270 263 262 255 252 247 246 247 246 230 229 228 229 227 232 234 238 247 255 262 261 258 265 272 266 271
276 275 274 272 271 270 269 268 266 265 263 261 261 260 257 256 257 253 252 252 252 259 262 260 252 253 238 238 243 237 233 227 230 231 231 232 236 245 236 244 243 262 247 271 258 262 266
275 274 271 270 270 269 268 267 265 264 262 259 258 257 254 249 252 250 245 244 243 244 254 255 235 240 239 225 240 228 227 222 227 224 225 231 229 233 238 241 244 259 256 255 268 265 273
274 272 269 268 268 267 266 265 263 262 260 258 255 254 250 248 248 245 242 244 233 237 242 244 232 237 230 224 229 232 218 224 226 231 231 231 231 232 235 237 243 260 263 253 260 259 259
272 270 268 267 266 265 263 262 261 258 256 254 252 250 247 244 243 238 235 234 229 231 234 241 227 231 230 225 225 229 215 219 220 223 231 230 234 228 229 233 237 236 247 251 245 245 248
269 267 266 265 263 261 259 257 256 253 250 248 246 244 244 241 237 232 228 225 229 230 230 233 222 224 228 224 225 225 224 222 222 224 222 225 225 223 221 230 221 226 234 235 226 241 279
267 265 264 262 259 258 256 254 252 249 247 245 241 240 239 235 231 228 227 225 227 229 225 233 234 230 229 229 228 222 227 226 222 221 221 221 228 221 221 221 228 224 230 235 213 247 239
266 264 263 260 258 257 255 252 249 245 242 239 237 237 236 229 224 226 228 232 230 229 237 236 230 222 229 224 223 221 221 226 224 221 221 229 223 224 214 216 225 230 238 227 220 223 239
266 265 262 260 258 256 253 249 245 240 237 232 231 236 232 222 219 225 233 232 228 227 228 233 238 239 233 235 226 225 227 230 226 220 218 223 231 221 213 213 216 220 227 231 236 239 248
268 265 263 259 258 253 250 245 240 235 230 226 228 233 227 214 220 229 234 235 227 226 227 231 240 235 233 235 234 228 226 233 224 222 217 219 222 221 217 212 222 228 221 229 225 229 232
268 265 262 258 254 250 247 243 237 230 224 221 227 228 223 216 224 230 235 235 233 226 224 227 233 234 227 238 234 231 226 235 231 214 223 213 221 220 215 218 219 223 226 229 233 236 239
269 265 260 257 254 250 244 240 234 227 221 218 221 222 222 221 228 230 229 230 233 227 226 226 228 235 229 235 228 234 224 226 219 229 212 219 220 221 217 218 217 223 224 223 230 233 244
269 265 261 258 252 247 243 237 232 226 219 215 218 224 220 221 227 228 226 230 229 227 223 223 226 228 232 228 228 233 233 223 226 227 219 215 218 222 225 227 212 222 224 231 235 232 230
269 265 261 256 251 246 242 236 228 222 216 216 219 220 220 229 225 223 226 227 230 225 222 219 223 222 223 234 229 235 228 220 221 222 223 220 220 221 226 226 234 231 229 223 230 237 243
268 264 259 253 248 243 239 233 227 221 213 216 218 217 217 222 219 220 223 225 227 227 226 221 220 221 222 227 224 232 225 226 219 222 217 219 218 218 226 227 235 236 230 234 234 237 241
267 261 256 251 246 240 234 228 222 216 212 214 214 212 216 218 218 221 222 223 225 225 227 222 219 219 217 220 224 238 226 227 220 220 220 218 219 216 222 221 233 237 234 238 244 249 250
267 260 257 251 244 236 229 222 217 212 209 210 208 208 212 217 218 220 220 220 222 225 226 222 217 219 216 221 236 224 224 223 221 220 219 224 225 218 219 226 237 232 229 231 236 243 244
267 260 251 246 237 230 220 213 209 206 203 206 205 206 209 213 218 217 220 219 218 220 221 224 215 212 206 204 213 220 217 222 218 223 227 228 225 226 219 225 231 229 225 230 240 249 245
275 265 253 241 229 222 210 206 203 200 199 200 201 201 203 212 214 218 217 215 214 216 219 216 209 212 207 213 217 226 220 216 217 211 212 224 222 225 227 231 236 232 230 236 240 244 246
291 270 241 222 212 201 198 195 194 195 194 194 193 195 202 206 204 208 207 210 211 211 214 211 205 213 209 208 210 219 221 219 222 218 207 214 221 224 227 232 237 236 231 227 237 232 248
343 49 173 175 174 179 182 185 183 184 186 189 189 191 195 201 202 207 212 205 221 212 215 210 206 204 207 208 213 219 226 220 221 225 217 218 226 227 225 231 238 233 236 233 236 244 249